Weather History for KLAF - April, 2014

Change the Weather History Date:

Tuesday, April 15, 2014

  Actual Average Record
Temperature  
Mean Temperature 33 °F 52 °F  
Max Temperature 38 °F 63 °F 84 °F (2002)
Min Temperature 27 °F 41 °F 26 °F (2008)
Degree Days  
Heating Degree Days 32 14  
Month to date heating degree days 250 240  
Since 1 July heating degree days 6200 5325  
Cooling Degree Days 0 0  
Month to date cooling degree days 1 0  
Year to date cooling degree days 1 1  
Moisture  
Dew Point 24 °F    
Average Humidity 66    
Maximum Humidity 92    
Minimum Humidity 40    
Precipitation  
Precipitation 0.02 in 0.12 in 1.20 in (1999)
Month to date precipitation 3.53 1.63  
Year to date precipitation 8.37 7.92  
Sea Level Pressure  
Sea Level Pressure 30.07 in    
Wind  
Wind Speed 10 mph (NNW)    
Max Wind Speed 21 mph    
Max Gust Speed 26 mph    
Visibility 8 miles    
Events Snow    
T = Trace of Precipitation, MM = Missing Value Source: NWS Daily Summary

Daily Weather History Graph

Daily Weather History Graph

Search for Another Location

Airport or City:

Trip Planner

Search our weather history database for the weather conditions in past years. The results will help you decide how hot, cold, wet, or windy it might be!

Date:

Astronomy

Apr. 15, 2014 Rise Set
Actual Time 7:09 AM EDT 8:26 PM EDT
Civil Twilight 6:41 AM EDT 8:55 PM EDT
Nautical Twilight 6:07 AM EDT 9:29 PM EDT
Astronomical Twilight 5:31 AM EDT 10:04 PM EDT
Moon 9:07 PM EDT (4/15) 7:16 AM EDT (4/15)
Length of Visible Light 14h 13m
Length of Day
13h 17m
Full, 100% of the Moon is Illuminated
Apr 15
Full
Apr 22
Last Quarter
Apr 29
New
May 6
First Quarter
May 14
Full

Hourly Weather History & Observations

Time (EDT) Temp. Windchill Dew Point Humidity Pressure Visibility Wind Dir Wind Speed Gust Speed Precip Events Conditions
12:23 AM 32.0 °F 23.6 °F 28.9 °F 88% 29.95 in 6.0 mi NNW 10.4 mph - 0.00 in Snow Light Snow
12:54 AM 32.0 °F 24.2 °F 28.9 °F 88% 29.96 in 10.0 mi NNW 9.2 mph - 0.00 in   Overcast
1:21 AM 32.0 °F 24.2 °F 28.9 °F 88% 29.94 in 10.0 mi NNW 9.2 mph - N/A   Overcast
1:35 AM 32.0 °F 22.5 °F 28.9 °F 88% 29.94 in 10.0 mi NNW 12.7 mph - N/A   Overcast
1:54 AM 32.0 °F 24.8 °F 28.9 °F 88% 29.96 in 10.0 mi NNW 8.1 mph - N/A   Overcast
2:06 AM 32.0 °F 24.8 °F 28.9 °F 88% 29.96 in 10.0 mi NW 8.1 mph - N/A   Overcast
2:42 AM 30.9 °F 21.2 °F 28.9 °F 92% 29.95 in 2.5 mi NW 12.7 mph - 0.00 in Snow Light Snow
2:54 AM 30.9 °F 20.2 °F 28.9 °F 92% 29.96 in 3.0 mi NNW 15.0 mph 20.7 mph 0.00 in Snow Light Snow
3:16 AM 30.9 °F 20.7 °F 28.0 °F 89% 29.95 in 5.0 mi NW 13.8 mph 21.9 mph 0.00 in Snow Light Snow
3:54 AM 30.9 °F 21.2 °F 28.0 °F 89% 29.97 in 4.0 mi NW 12.7 mph 19.6 mph 0.00 in Snow Light Snow
4:19 AM 30.9 °F 20.2 °F 27.0 °F 85% 29.96 in 9.0 mi NW 15.0 mph 19.6 mph 0.00 in   Overcast
4:54 AM 30.0 °F 20.0 °F 27.0 °F 88% 29.98 in 10.0 mi NW 12.7 mph - 0.00 in   Overcast
5:09 AM 30.0 °F 20.5 °F 27.0 °F 88% 29.97 in 10.0 mi NW 11.5 mph - N/A   Overcast
5:42 AM 30.0 °F 20.0 °F 27.0 °F 88% 29.97 in 10.0 mi NNW 12.7 mph - 0.00 in   Mostly Cloudy
5:54 AM 30.0 °F 20.0 °F 27.0 °F 88% 29.99 in 9.0 mi NW 12.7 mph - 0.00 in Snow Light Snow
6:22 AM 30.0 °F 20.5 °F 26.1 °F 85% 29.99 in 7.0 mi NW 11.5 mph - 0.01 in Snow Light Snow
6:39 AM 28.9 °F 19.8 °F 26.1 °F 89% 30.00 in 10.0 mi NW 10.4 mph - 0.01 in   Overcast
6:54 AM 28.9 °F 18.6 °F 25.0 °F 85% 30.02 in 4.0 mi NW 12.7 mph - 0.01 in Snow Light Snow
7:07 AM 28.9 °F 18.6 °F 26.1 °F 89% 30.02 in 1.0 mi NW 12.7 mph 23.0 mph 0.00 in Snow Light Snow
7:15 AM 28.0 °F 18.1 °F 26.1 °F 92% 30.02 in 1.0 mi North 11.5 mph - 0.00 in Snow Light Snow
7:34 AM 28.0 °F 19.3 °F 26.1 °F 92% 30.04 in 7.0 mi North 9.2 mph - 0.00 in Snow Light Snow
7:47 AM 28.0 °F 20.0 °F 25.0 °F 88% 30.04 in 10.0 mi North 8.1 mph - 0.00 in   Mostly Cloudy
7:54 AM 28.0 °F 19.3 °F 26.1 °F 92% 30.07 in 10.0 mi North 9.2 mph - 0.00 in   Mostly Cloudy
8:54 AM 28.9 °F 18.6 °F 24.1 °F 82% 30.09 in 2.5 mi NNW 12.7 mph - 0.00 in Snow Light Snow
8:56 AM 28.9 °F 18.6 °F 24.1 °F 82% 30.07 in 1.8 mi NNW 12.7 mph - 0.00 in Snow Light Snow
8:59 AM 28.9 °F 19.2 °F 25.0 °F 85% 30.08 in 1.5 mi NNW 11.5 mph - 0.00 in Snow Light Snow
9:15 AM 28.0 °F 17.5 °F 24.1 °F 85% 30.08 in 3.0 mi NW 12.7 mph - 0.01 in Snow Light Snow
9:54 AM 30.0 °F 20.0 °F 24.1 °F 79% 30.12 in 10.0 mi NW 12.7 mph - 0.01 in   Mostly Cloudy
9:56 AM 30.0 °F 20.5 °F 25.0 °F 82% 30.10 in 10.0 mi NNW 11.5 mph - N/A   Scattered Clouds
10:05 AM 30.9 °F 20.2 °F 25.0 °F 79% 30.10 in 10.0 mi NNW 15.0 mph - N/A   Mostly Cloudy
10:35 AM 32.0 °F 22.1 °F 24.1 °F 73% 30.11 in 10.0 mi North 13.8 mph - N/A   Mostly Cloudy
10:54 AM 30.9 °F 20.2 °F 23.0 °F 72% 30.14 in 10.0 mi North 15.0 mph - N/A   Overcast
11:54 AM 32.0 °F 20.5 °F 18.0 °F 56% 30.16 in 10.0 mi NNW 18.4 mph 26.5 mph N/A   Mostly Cloudy
12:54 PM 33.1 °F 23.0 °F 15.1 °F 48% 30.17 in 10.0 mi NW 15.0 mph 20.7 mph N/A   Overcast
1:54 PM 34.0 °F 24.2 °F 17.1 °F 50% 30.17 in 10.0 mi NW 15.0 mph 23.0 mph N/A   Overcast
2:54 PM 37.0 °F 28.5 °F 16.0 °F 42% 30.18 in 10.0 mi North 13.8 mph 21.9 mph N/A   Overcast
3:54 PM 35.1 °F 27.4 °F 16.0 °F 46% 30.19 in 10.0 mi NW 10.4 mph - N/A   Overcast
4:54 PM 36.0 °F 28.0 °F 15.1 °F 43% 30.19 in 10.0 mi NNW 11.5 mph - N/A   Overcast
5:54 PM 36.0 °F 29.0 °F 14.0 °F 41% 30.19 in 10.0 mi NNW 9.2 mph - N/A   Overcast
6:54 PM 36.0 °F 30.3 °F 15.1 °F 43% 30.20 in 10.0 mi Variable 6.9 mph - N/A   Overcast
7:54 PM 35.1 °F 32.2 °F 15.1 °F 44% 30.21 in 10.0 mi NW 3.5 mph - N/A   Mostly Cloudy
8:54 PM 34.0 °F - 16.0 °F 48% 30.22 in 10.0 mi Calm Calm - N/A   Clear
9:54 PM 30.0 °F - 19.0 °F 64% 30.24 in 10.0 mi Calm Calm - N/A   Clear
10:54 PM 28.0 °F - 19.0 °F 69% 30.26 in 10.0 mi Calm Calm - N/A   Clear
11:54 PM 28.0 °F 24.2 °F 19.9 °F 72% 30.25 in 10.0 mi East 3.5 mph - N/A   Clear